| time (UTC) | temp C | wind direction | speed KPH | gust KPH | rain 1hr cm | rain 24hr cm | rain mn cm | humidity % | barometer mb |
| 20260503173056 | 15 | 263 | 11.3 | 25.7 | 0.00 | 0.00 | 0.00 | 39 | 1019.2 |
| 20260503171556 | 13 | 274 | 9.7 | 29.0 | 0.00 | 0.00 | 0.00 | 39 | 1019.1 |
| 20260503100104 | 1 | 360 | 3.2 | 4.8 | 0.00 | 0.00 | 0.00 | 78 | 1019.3 |
| 20260503081549 | 1 | 0 | 0.0 | 0.0 | 0.00 | 0.00 | 0.00 | 81 | 1019.2 |
| 20260503071543 | 0 | 0 | 0.0 | 0.0 | 0.00 | 0.00 | 0.00 | 86 | 1019.1 |
| 20260503070110 | 0 | 0 | 0.0 | 0.0 | 0.00 | 0.00 | 0.00 | 86 | 1019.1 |
| 20260503060113 | 1 | 0 | 0.0 | 0.0 | 0.00 | 0.00 | 0.00 | 84 | 1019.4 |
| 20260503054549 | 1 | 0 | 0.0 | 0.0 | 0.00 | 0.00 | 0.00 | 83 | 1019.4 |
| 20260503053049 | 1 | 0 | 0.0 | 0.0 | 0.00 | 0.00 | 0.00 | 83 | 1019.5 |
| 20260503051551 | 1 | 0 | 0.0 | 0.0 | 0.00 | 0.00 | 0.00 | 83 | 1019.4 |
| 20260503050045 | 1 | 0 | 0.0 | 0.0 | 0.00 | 0.00 | 0.00 | 82 | 1019.6 |
| 20260503044551 | 1 | 0 | 0.0 | 0.0 | 0.00 | 0.00 | 0.00 | 82 | 1019.6 |
| 20260503043050 | 2 | 0 | 0.0 | 0.0 | 0.00 | 0.00 | 0.00 | 80 | 1019.6 |
| 20260503041555 | 2 | 0 | 0.0 | 0.0 | 0.00 | 0.00 | 0.00 | 77 | 1019.6 |
| 20260503040050 | 2 | 0 | 0.0 | 0.0 | 0.00 | 0.00 | 0.00 | 75 | 1019.7 |
| 20260503034601 | 3 | 0 | 0.0 | 0.0 | 0.00 | 0.00 | 0.00 | 70 | 1019.7 |
| 20260503033057 | 3 | 0 | 0.0 | 0.0 | 0.00 | 0.00 | 0.00 | 71 | 1019.7 |
| 20260503031556 | 3 | 0 | 0.0 | 0.0 | 0.00 | 0.00 | 0.00 | 71 | 1019.7 |
| 20260503030053 | 3 | 0 | 0.0 | 0.0 | 0.00 | 0.00 | 0.00 | 68 | 1019.7 |
| 20260503024550 | 4 | 0 | 0.0 | 1.6 | 0.00 | 0.00 | 0.00 | 67 | 1019.7 |
| 20260503023050 | 5 | 0 | 0.0 | 0.0 | 0.00 | 0.00 | 0.00 | 65 | 1019.5 |
| 20260503021545 | 5 | 0 | 1.6 | 3.2 | 0.00 | 0.00 | 0.00 | 62 | 1019.5 |
| 20260503020045 | 5 | 0 | 0.0 | 0.0 | 0.00 | 0.00 | 0.00 | 62 | 1019.2 |
| 20260503014548 | 6 | 0 | 0.0 | 0.0 | 0.00 | 0.00 | 0.00 | 59 | 1018.9 |
| 20260503013055 | 6 | 0 | 0.0 | 3.2 | 0.00 | 0.00 | 0.00 | 58 | 1018.8 |
| 20260503011603 | 6 | 355 | 1.6 | 8.0 | 0.00 | 0.00 | 0.00 | 56 | 1018.5 |
| 20260503010116 | 7 | 359 | 0.0 | 1.6 | 0.00 | 0.00 | 0.00 | 55 | 1018.3 |
| 20260503004543 | 7 | 11 | 0.0 | 6.4 | 0.00 | 0.00 | 0.00 | 53 | 1018.2 |
| 20260503003042 | 8 | 7 | 4.8 | 12.9 | 0.00 | 0.00 | 0.00 | 50 | 1018.0 |
| 20260503001548 | 9 | 28 | 8.0 | 14.5 | 0.00 | 0.00 | 0.00 | 48 | 1017.8 |
| 20260503000050 | 10 | 32 | 6.4 | 17.7 | 0.00 | 0.00 | 0.00 | 45 | 1017.5 |
| 20260502234550 | 10 | 37 | 8.0 | 19.3 | 0.00 | 0.00 | 0.00 | 44 | 1017.4 |
| 20260502233051 | 11 | 358 | 4.8 | 14.5 | 0.00 | 0.00 | 0.00 | 41 | 1017.4 |
| 20260502231550 | 11 | 328 | 3.2 | 16.1 | 0.00 | 0.00 | 0.00 | 40 | 1017.4 |
| 20260502230051 | 11 | 321 | 8.0 | 20.9 | 0.00 | 0.00 | 0.00 | 37 | 1017.4 |
| 20260502224553 | 12 | 297 | 8.0 | 19.3 | 0.00 | 0.00 | 0.00 | 39 | 1017.3 |
| 20260502223053 | 11 | 317 | 8.0 | 14.5 | 0.00 | 0.00 | 0.00 | 38 | 1017.3 |
| 20260502221553 | 12 | 1 | 6.4 | 14.5 | 0.00 | 0.00 | 0.00 | 37 | 1017.3 |
| 20260502220050 | 12 | 18 | 3.2 | 17.7 | 0.00 | 0.00 | 0.00 | 42 | 1017.1 |
| 20260502214600 | 12 | 352 | 6.4 | 17.7 | 0.00 | 0.00 | 0.00 | 39 | 1017.1 |
| 20260502213052 | 12 | 291 | 4.8 | 14.5 | 0.00 | 0.00 | 0.00 | 41 | 1017.0 |
| 20260502211601 | 12 | 308 | 6.4 | 19.3 | 0.00 | 0.00 | 0.00 | 40 | 1017.0 |
| 20260502210053 | 12 | 317 | 9.7 | 19.3 | 0.00 | 0.00 | 0.00 | 43 | 1017.0 |
| 20260502204547 | 11 | 279 | 11.3 | 20.9 | 0.00 | 0.00 | 0.00 | 39 | 1017.0 |
| 20260502203101 | 12 | 333 | 9.7 | 22.5 | 0.00 | 0.00 | 0.00 | 43 | 1017.0 |
| 20260502201604 | 11 | 292 | 4.8 | 14.5 | 0.00 | 0.00 | 0.00 | 44 | 1017.1 |
| 20260502200050 | 11 | 354 | 9.7 | 29.0 | 0.00 | 0.00 | 0.00 | 44 | 1017.3 |
| 20260502194552 | 11 | 360 | 9.7 | 20.9 | 0.00 | 0.00 | 0.00 | 41 | 1017.5 |
| 20260502193051 | 12 | 15 | 6.4 | 20.9 | 0.00 | 0.00 | 0.00 | 46 | 1017.5 |
| 20260502191550 | 11 | 77 | 11.3 | 24.1 | 0.00 | 0.00 | 0.00 | 44 | 1017.5 |
| 20260502190047 | 11 | 297 | 6.4 | 25.7 | 0.00 | 0.00 | 0.00 | 51 | 1017.7 |
| 20260502184550 | 11 | 277 | 9.7 | 20.9 | 0.00 | 0.00 | 0.00 | 48 | 1017.8 |
| 20260502183053 | 11 | 301 | 11.3 | 20.9 | 0.00 | 0.00 | 0.00 | 46 | 1017.9 |
| 20260502181550 | 12 | 278 | 9.7 | 17.7 | 0.00 | 0.00 | 0.00 | 46 | 1017.9 |